Location: Exeidioux
(45.6312°N, 1.6819°E)
Time: 17:11:46
(UTC+00:00)

ASTEX 1 - Pass Details

Date: 03 March 2021
Orbit: 720 x 743 km, 92.7° (Epoch: 11 April)

Event Time Altitude Azimuth Distance (km) Brightness Sun altitude
Rises 19:20:49 0° 11° (N) 3,148 6.7 -17.8°
Reaches altitude 10° 19:23:13 10° 17° (NNE) 2,220 5.8 -18.3°
Maximum altitude 19:27:56 46° 91° (E) 968 3.6 -19.1°
Enters shadow 19:30:12 27° 148° (SSE) 1,369 4.4 -19.5°
